Back to catalog

FENGYUN 1C DEB

AliveSSO
NORAD 30574·DEBRIS·🇨🇳 China

Launched May 10, 1999 from Taiyuan Satellite Launch Center

Loading…

Next Passes (next 24 hours)

TLE

FreshSource: Space-Track

Epoch: Sep 14, 2026, 10:01 UTC

1 30574U 99025ALQ 26257.41756648  .00001391  00000-0  11837-2 0  9993
2 30574  99.3289  61.1458 0215487 340.1120  19.1726 13.78954594975668

Track FENGYUN 1C DEB in real time with AllMySat

Download on the App Store